KHE YHOT-YMML

Flight info

Callsign KHE
Flight time 0h 28m
Altitude 14000
Route OMBIS Z82 TEMIS DCT BOOIN DCT ML
Aircraft C750/M-SBDE3FGHRWXY/S

Departure

Time 2026-04-12 02:29
Airport Mount Hotham Airport (YHOT)

Arrival

Time 2026-04-12 02:57
Airport Melbourne Airport (YMML)
Time Latitude Longitude Altitude Speed Heading
2026-04-12 02:06 -37.05117 147.33819 4276 ft 0 kts 250°
2026-04-12 02:20 -37.05111 147.33808 4278 ft 3 kts 330°
2026-04-12 02:20 -37.05097 147.33819 4275 ft 0 kts 61°
2026-04-12 02:26 -37.05096 147.33822 4275 ft 1 kts 64°
2026-04-12 02:26 -37.05099 147.33857 4275 ft 7 kts 112°
2026-04-12 02:27 -37.05126 147.33912 4275 ft 7 kts 117°
2026-04-12 02:27 -37.05117 147.33961 4275 ft 8 kts 43°
2026-04-12 02:27 -37.05088 147.34010 4274 ft 6 kts 96°
2026-04-12 02:27 -37.05114 147.34076 4273 ft 11 kts 121°
2026-04-12 02:28 -37.05152 147.34168 4269 ft 10 kts 105°
2026-04-12 02:28 -37.05173 147.34189 4267 ft 2 kts 252°
2026-04-12 02:28 -37.05165 147.34173 4268 ft 4 kts 304°
2026-04-12 02:28 -37.05043 147.33942 4274 ft 82 kts 304°
2026-04-12 02:29 -37.04585 147.33067 4388 ft 139 kts 302°
2026-04-12 02:29 -37.04006 147.32055 5080 ft 142 kts 301°
2026-04-12 02:29 -37.03453 147.31034 5690 ft 148 kts 296°
2026-04-12 02:29 -37.03195 147.29735 6139 ft 160 kts 270°
2026-04-12 02:30 -37.03340 147.28388 7017 ft 153 kts 254°
2026-04-12 02:30 -37.03600 147.27033 7540 ft 173 kts 257°
2026-04-12 02:30 -37.03799 147.25413 7817 ft 203 kts 259°
2026-04-12 02:30 -37.04012 147.23628 8499 ft 215 kts 258°
2026-04-12 02:31 -37.04258 147.21672 8892 ft 242 kts 256°
2026-04-12 02:31 -37.04526 147.19538 9784 ft 246 kts 256°
2026-04-12 02:31 -37.04787 147.17408 10696 ft 255 kts 256°
2026-04-12 02:31 -37.05078 147.15111 11038 ft 280 kts 256°
2026-04-12 02:32 -37.05395 147.12582 11186 ft 307 kts 257°
2026-04-12 02:32 -37.05721 147.09888 11784 ft 313 kts 257°
2026-04-12 02:32 -37.06046 147.07191 12679 ft 315 kts 257°
2026-04-12 02:32 -37.06383 147.04493 13451 ft 319 kts 256°
2026-04-12 02:33 -37.06730 147.01723 14021 ft 328 kts 257°
2026-04-12 02:33 -37.07089 146.98801 14055 ft 350 kts 257°
2026-04-12 02:33 -37.07469 146.95699 14053 ft 369 kts 257°
2026-04-12 02:33 -37.07857 146.92499 14059 ft 375 kts 257°
2026-04-12 02:34 -37.08249 146.89252 14060 ft 377 kts 257°
2026-04-12 02:34 -37.08648 146.85987 14053 ft 378 kts 257°
2026-04-12 02:34 -37.09037 146.82769 14057 ft 375 kts 257°
2026-04-12 02:34 -37.09427 146.79524 14050 ft 378 kts 257°
2026-04-12 02:35 -37.09820 146.76279 14613 ft 368 kts 257°
2026-04-12 02:35 -37.10185 146.73203 15609 ft 350 kts 257°
2026-04-12 02:35 -37.10553 146.70179 16059 ft 357 kts 256°
2026-04-12 02:35 -37.10944 146.67025 16053 ft 376 kts 257°
2026-04-12 02:36 -37.11336 146.63733 16056 ft 386 kts 257°
2026-04-12 02:36 -37.11726 146.60374 16071 ft 390 kts 257°
2026-04-12 02:36 -37.12128 146.56995 16064 ft 393 kts 257°
2026-04-12 02:36 -37.12536 146.53606 16068 ft 394 kts 257°
2026-04-12 02:37 -37.12940 146.50206 16078 ft 395 kts 257°
2026-04-12 02:37 -37.13338 146.46801 16077 ft 395 kts 257°
2026-04-12 02:37 -37.13741 146.43388 16080 ft 394 kts 257°
2026-04-12 02:37 -37.14141 146.39994 16072 ft 394 kts 258°
2026-04-12 02:38 -37.14537 146.36602 16074 ft 393 kts 257°
2026-04-12 02:38 -37.14934 146.33196 16066 ft 394 kts 257°
2026-04-12 02:38 -37.15333 146.29798 16060 ft 394 kts 257°
2026-04-12 02:38 -37.15729 146.26402 16063 ft 393 kts 257°
2026-04-12 02:39 -37.16123 146.23002 16067 ft 395 kts 257°
2026-04-12 02:39 -37.16517 146.19599 16063 ft 394 kts 257°
2026-04-12 02:39 -37.16911 146.16195 16064 ft 395 kts 257°
2026-04-12 02:39 -37.17304 146.12781 16062 ft 395 kts 257°
2026-04-12 02:40 -37.17695 146.09369 16074 ft 395 kts 257°
2026-04-12 02:40 -37.18086 146.05957 16077 ft 395 kts 257°
2026-04-12 02:40 -37.18473 146.02585 16059 ft 396 kts 257°
2026-04-12 02:40 -37.18867 145.99126 16067 ft 395 kts 257°
2026-04-12 02:41 -37.19251 145.95748 16072 ft 393 kts 257°
2026-04-12 02:41 -37.19841 145.92428 16064 ft 389 kts 250°
2026-04-12 02:41 -37.20747 145.89247 16060 ft 386 kts 244°
2026-04-12 02:41 -37.21942 145.86237 16064 ft 385 kts 238°
2026-04-12 02:42 -37.23410 145.83430 16061 ft 385 kts 232°
2026-04-12 02:42 -37.25134 145.80861 16064 ft 385 kts 226°
2026-04-12 02:42 -37.27084 145.78569 16079 ft 384 kts 220°
2026-04-12 02:43 -37.31483 145.74793 15946 ft 370 kts 214°
2026-04-12 02:43 -37.33548 145.73122 15505 ft 336 kts 214°
2026-04-12 02:43 -37.35457 145.71565 15078 ft 324 kts 214°
2026-04-12 02:43 -37.37340 145.70041 14660 ft 321 kts 214°
2026-04-12 02:44 -37.39206 145.68540 14240 ft 317 kts 214°
2026-04-12 02:44 -37.41055 145.67046 13832 ft 316 kts 214°
2026-04-12 02:44 -37.42889 145.65551 13391 ft 315 kts 214°
2026-04-12 02:44 -37.44603 145.63885 12969 ft 309 kts 223°
2026-04-12 02:45 -37.46027 145.61909 12565 ft 308 kts 231°
2026-04-12 02:45 -37.47222 145.59672 12172 ft 308 kts 235°
2026-04-12 02:45 -37.48627 145.57695 11746 ft 305 kts 220°
2026-04-12 02:45 -37.50365 145.56181 11391 ft 304 kts 213°
2026-04-12 02:46 -37.52169 145.54815 11035 ft 295 kts 212°
2026-04-12 02:46 -37.53871 145.53573 10689 ft 270 kts 212°
2026-04-12 02:46 -37.55437 145.52440 10386 ft 251 kts 212°
2026-04-12 02:46 -37.56931 145.51357 10100 ft 245 kts 212°
2026-04-12 02:47 -37.58404 145.50276 9784 ft 242 kts 214°
2026-04-12 02:47 -37.59692 145.48921 9476 ft 240 kts 224°
2026-04-12 02:47 -37.60863 145.47421 9180 ft 239 kts 226°
2026-04-12 02:47 -37.61990 145.45874 8870 ft 240 kts 230°
2026-04-12 02:48 -37.62928 145.44139 8527 ft 243 kts 242°
2026-04-12 02:48 -37.63337 145.42056 8203 ft 246 kts 257°
2026-04-12 02:48 -37.63517 145.39901 7944 ft 247 kts 259°
2026-04-12 02:48 -37.63714 145.37776 7688 ft 247 kts 258°
2026-04-12 02:49 -37.63935 145.35628 7429 ft 247 kts 258°
2026-04-12 02:49 -37.64153 145.33476 7168 ft 247 kts 258°
2026-04-12 02:49 -37.64363 145.31324 6928 ft 246 kts 259°
2026-04-12 02:49 -37.64574 145.29179 6691 ft 246 kts 259°
2026-04-12 02:50 -37.64784 145.27035 6452 ft 246 kts 259°
2026-04-12 02:50 -37.64924 145.25617 6268 ft 245 kts 258°
2026-04-12 02:50 -37.65132 145.23486 6015 ft 245 kts 259°
2026-04-12 02:50 -37.65340 145.21362 5763 ft 244 kts 259°
2026-04-12 02:51 -37.65547 145.19241 5509 ft 243 kts 259°
2026-04-12 02:51 -37.65754 145.17124 5229 ft 242 kts 260°
2026-04-12 02:51 -37.65958 145.15018 4988 ft 242 kts 260°
2026-04-12 02:51 -37.66159 145.12938 4730 ft 231 kts 259°
2026-04-12 02:52 -37.66346 145.10982 4448 ft 219 kts 259°
2026-04-12 02:52 -37.66529 145.09111 4138 ft 210 kts 260°
2026-04-12 02:52 -37.66705 145.07300 3804 ft 205 kts 260°
2026-04-12 02:52 -37.66874 145.05539 3472 ft 200 kts 260°
2026-04-12 02:53 -37.67041 145.03811 3140 ft 196 kts 261°
2026-04-12 02:53 -37.67145 145.02113 2771 ft 194 kts 269°
2026-04-12 02:53 -37.66979 144.98856 2573 ft 175 kts 267°
2026-04-12 02:54 -37.66940 144.97332 2418 ft 174 kts 269°
2026-04-12 02:54 -37.66865 144.95862 2189 ft 167 kts 269°
2026-04-12 02:54 -37.66779 144.94414 1954 ft 164 kts 270°
2026-04-12 02:54 -37.66696 144.92968 1728 ft 170 kts 269°
2026-04-12 02:55 -37.66612 144.91581 1503 ft 144 kts 271°
2026-04-12 02:55 -37.66548 144.90382 1294 ft 128 kts 271°
2026-04-12 02:55 -37.66487 144.89338 1130 ft 114 kts 271°
2026-04-12 02:55 -37.66436 144.88392 992 ft 102 kts 271°
2026-04-12 02:56 -37.66379 144.87496 870 ft 104 kts 271°
2026-04-12 02:56 -37.66336 144.86599 768 ft 102 kts 269°
2026-04-12 02:56 -37.66281 144.85680 671 ft 109 kts 269°
2026-04-12 02:56 -37.66222 144.84713 455 ft 109 kts 270°
2026-04-12 02:57 -37.66174 144.83830 411 ft 88 kts 272°
2026-04-12 02:57 -37.66138 144.83259 410 ft 39 kts 275°
2026-04-12 02:57 -37.66158 144.82978 405 ft 28 kts 253°
2026-04-12 02:57 -37.66215 144.82813 398 ft 17 kts 244°
2026-04-12 02:58 -37.66280 144.82699 391 ft 16 kts 212°
2026-04-12 02:58 -37.66381 144.82692 386 ft 15 kts 159°
2026-04-12 02:58 -37.66444 144.82794 382 ft 15 kts 103°
2026-04-12 02:58 -37.66453 144.82916 384 ft 12 kts 93°
2026-04-12 02:59 -37.66458 144.83012 388 ft 11 kts 95°
2026-04-12 02:59 -37.66467 144.83148 393 ft 20 kts 93°
2026-04-12 02:59 -37.66479 144.83343 398 ft 21 kts 94°
2026-04-12 02:59 -37.66489 144.83515 400 ft 19 kts 94°
2026-04-12 03:00 -37.66498 144.83676 402 ft 17 kts 94°
2026-04-12 03:00 -37.66507 144.83825 400 ft 17 kts 94°
2026-04-12 03:00 -37.66556 144.83935 399 ft 16 kts 160°
2026-04-12 03:00 -37.66672 144.83961 394 ft 18 kts 171°
2026-04-12 03:01 -37.66800 144.83985 388 ft 19 kts 171°
2026-04-12 03:01 -37.66940 144.84011 384 ft 21 kts 171°
2026-04-12 03:01 -37.67085 144.84038 379 ft 21 kts 172°
2026-04-12 03:01 -37.67237 144.84067 375 ft 23 kts 172°
2026-04-12 03:02 -37.67396 144.84096 371 ft 23 kts 172°
2026-04-12 03:02 -37.67499 144.84164 368 ft 15 kts 103°
2026-04-12 03:02 -37.67518 144.84278 370 ft 12 kts 121°
2026-04-12 03:02 -37.67572 144.84345 370 ft 8 kts 111°
2026-04-12 03:03 -37.67568 144.84411 371 ft 6 kts 81°
2026-04-12 03:03 -37.67561 144.84454 372 ft 3 kts 57°
2026-04-12 03:03 -37.67557 144.84458 372 ft 0 kts 37°